[Date Prev][Date Next][Thread Prev][Thread Next] - [Date Index][Thread Index][Author Index]
2 Line ISS Keps 8-27
- Subject: [sarex] 2 Line ISS Keps 8-27
- From: "Dave Larsen PhD" <doc@xxxxxxxxxxx>
- Date: Wed, 27 Aug 2003 05:53:09 -0700
ISS
1 25544U 98067A 03239.44688594 .00017402 00000-0 20341-3 0 4054
2 25544 51.6325 21.4676 0007048 172.9059 306.6172 15.61666254272134
----
Via the sarex mailing list at AMSAT.ORG courtesy of AMSAT-NA.
To unsubscribe, send "unsubscribe sarex" to Majordomo@amsat.org
AMSAT Home